Location: Holcomb Observatory
(44.4922°N, 73.1654°W)
Time: 04:14:06
(UTC-04:00)

Cosmos 2360 Rocket - Visible Passes

Search period start: 27 August 2016 00:00
Search period end: 06 September 2016 00:00
Orbit: 832 x 847 km, 71.0° (Epoch: 26 August)

Date Brightness Start Highest point End Pass type
(mag) Time Alt. Az. Time Alt. Az. Time Alt. Az.
27 Aug 4.5 01:43:12 14° WNW 01:44:35 15° NW 01:47:41 10° N visible
27 Aug 3.2 23:45:50 42° NNE 23:45:50 42° NNE 23:49:31 10° NNE visible
28 Aug 4.5 01:27:34 14° WNW 01:28:51 15° NW 01:32:09 10° N visible
28 Aug 3.1 23:30:08 43° NNE 23:30:08 43° NNE 23:33:52 10° NNE visible
29 Aug 4.5 01:11:52 15° WNW 01:13:07 16° NW 01:16:35 10° N visible
29 Aug 3.0 23:14:23 44° NNE 23:14:23 44° NNE 23:18:13 10° NNE visible
30 Aug 4.5 00:56:06 16° WNW 00:57:24 17° NW 01:01:01 10° N visible
30 Aug 2.9 22:58:32 48° NNE 22:58:32 48° NNE 23:02:33 10° NNE visible
31 Aug 4.4 00:40:15 16° WNW 00:41:40 18° NW 00:45:27 10° N visible
31 Aug 2.6 22:42:34 53° NNE 22:42:34 53° NNE 22:46:53 10° NNE visible
01 Sep 4.4 00:24:17 17° WNW 00:25:57 19° NW 00:29:52 10° N visible
01 Sep 5.1 05:45:43 10° NNE 05:47:52 12° NE 05:50:00 10° ENE visible
01 Sep 2.3 22:26:27 63° NE 22:26:27 63° NE 22:31:13 10° NNE visible
02 Sep 4.4 00:08:08 16° WNW 00:10:14 20° NW 00:14:17 10° N visible
02 Sep 5.2 05:30:17 10° NNE 05:32:08 11° NE 05:33:57 10° ENE visible
02 Sep 2.0 22:10:02 76° E 22:10:02 76° E 22:15:33 10° NNE visible
02 Sep 4.4 23:51:43 15° W 23:54:31 20° NW 23:58:42 10° N visible
03 Sep 5.3 05:14:56 10° NNE 05:16:23 11° NE 05:17:50 10° NE visible
03 Sep 2.0 21:53:08 57° S 21:54:12 72° ESE 21:59:53 10° NNE visible
03 Sep 4.4 23:34:45 11° W 23:38:48 21° NW 23:43:06 10° N visible
04 Sep 5.4 04:59:43 10° NNE 05:00:38 10° NE 05:01:34 10° NE visible
04 Sep 2.1 21:34:32 19° S 21:38:33 68° ESE 21:44:12 10° NNE visible
04 Sep 4.3 23:18:42 10° W 23:23:05 23° NW 23:27:31 10° N visible
05 Sep 2.1 21:17:20 10° S 21:22:54 64° ESE 21:28:31 10° NNE visible
05 Sep 4.3 23:02:53 10° WSW 23:07:23 24° NW 23:11:55 10° N visible
